{"data":{"norad_id":59922,"epoch":"2026-05-25T00:38:30.441408Z","epoch_age_seconds":76209,"freshness":"FRESH","line1":"1 59922U 24106A   26145.02674122 -.00000062  00000+0  72798-5 0  9998","line2":"2 59922  42.9992 261.7504 0000796 287.3562  72.7202 15.27574763112230","mean_motion":15.27574763,"eccentricity":7.96e-5,"inclination_deg":42.9992,"raan_deg":261.7504,"arg_perigee_deg":287.3562,"mean_anomaly_deg":72.7202,"bstar":7.2798e-6,"rev_number":11223,"period_min":94.267071889299,"perigee_km":482.51862588496,"apogee_km":483.61092920795,"semimajor_km":6861.2017775465,"source":"CELESTRAK","updated_at":"2026-05-25T13:38:19.121263Z"}}